Погода в Баграш-Бигре

Россия / Удмуртская Республика     56°31′05″N   52°56′24″E
темп.,
°C
ветер,
м/с
пор.,
м/с
влажн.,
%
обл.,
%
осадки,
мм/ч
давл.,
гПа
погр.,
м
14 апреля, ср
ср1401:00+9ююз239256 0.0 103229
04:00+8ююз229160 0.0 103220
07:00+9ююз249022 0.0 103169
10:00+14ююз346715 0.0 1031387
13:00+17ю445286 0.0 1029846
16:00+18ю454916 0.0 1028970
19:00+14ю34705 0.0 102648
22:00+11ю35845 0.0 102674
15 апреля, чт
чт1501:00+10ю338750 0.0 102540
04:00+9ю33895 0.0 102430
07:00+9ю36875 0.0 1023168
10:00+14ююз46614 0.0 1022544
13:00+17юз57490 0.0 10201383
16:00+18юз564455 0.0 10191634
19:00+15юз33580 0.0 101843
22:00+12з22680 0.0 101817
16 апреля, пт
пт1601:00+9ссв7119051 0.0 1019377
04:00+6св71383100 0.0 1022601
07:00+4св71277100 0.5 1024655
10:00+7св79478 0.5 1024900
13:00+10св78360 0.0 10251214
16:00+10св67340 0.0 10251366
19:00+7ссв59445 0.0 1025299
22:00+4ссв4105519 0.0 1027217
17 апреля, сб
сб1701:00+2ссв38635 0.0 1027149
04:00+1с346765 0.0 102752
07:00+2ссз26615 0.0 1027178
10:00+7с46420 0.0 10271100
13:00+10ссз564186 0.0 10261895
16:00+10с664283 0.0 10251832
19:00+7ссз485298 0.0 1026284
22:00+4сз38665 0.0 1027148
18 апреля, вс
вс1801:00+2сз35735 0.0 102793
04:00+1ссз35805 0.0 102997
07:00+2ссз410775 0.0 1029480
10:00+5с57505 0.0 10291221
13:00+8ссз6847100 0.0 10291821
16:00+7ссз6853100 0.0 10301696
19:00+5с476299 0.0 10311030
22:00+2с24755 0.0 103273